Regional Weather Roundup
Issued by NWS Midland/Odessa, TX

Skip options and go directly to product.
Home | Oldest Version | Previous Version | Current Version | All | Text Only | Save Text | Print | Product List | Glossary On

Skip product version selection by date and time.   
159
ASUS44 KMAF 290310
RWRMAF
MIDLAND AREA WEATHER ROUNDUP
NATIONAL WEATHER SERVICE MIDLAND TX
1000 PM CDT SUN AUG 28 2016

...IN SOUTHWEST TEXAS AND SOUTHEAST NEW MEXICO...

CITY           SKY/WX    TMP DP  RH WIND       PRES   REMARKS
ALPINE         PTCLDY    65  60  83 CALM      30.24R
ANDREWS        NOT AVBL
ARTESIA        CLEAR     72  63  73 NW8       30.12R
BIG SPRING     CLOUDY    78  67  69 E7        30.12R
CARLSBAD       PTCLDY    73  61  65 CALM      30.07R
DRYDEN           N/A     71  69  93 NE16G26   30.09R
FORT STOCKTON  CLOUDY    71  65  81 SE17G24   30.10R
GUAD PASS      CLEAR     70  58  65 NE17      30.21R
HOBBS          TSTM     N/A N/A N/A SW9       30.16R
MARFA          CLOUDY   N/A N/A N/A E6        30.22R
MIDLAND AIRPK  CLOUDY    77  66  68 E8        30.10S
MIDLAND INTL   CLOUDY    77  65  66 E12       30.08R
ODESSA         MOCLDY    75  66  73 E10       30.10R
PECOS          CLOUDY    77  63  62 SE7       30.04R
PRESIDIO       NOT AVBL
SEMINOLE       HVY RAIN  68  63  85 N26G36    30.17R
SNYDER           N/A     76  66  70 CALM      30.12R
WINK           CLOUDY    79  63  57 SE9       30.04R
$$
...OTHER STATIONS IN TEXAS...

CITY           SKY/WX    TMP DP  RH WIND       PRES   REMARKS
ABILENE        CLEAR     77  70  79 E7        30.08R
AMARILLO       CLEAR     70  64  81 SE9       30.17R
AUSTIN         MOCLDY    78  71  79 NE7       30.01R
BROWNSVILLE    CLEAR     82  75  79 E3        29.91R
CORPUS CHRISTI PTCLDY    83  74  74 NE10      29.92R
DALLAS FTW     PTCLDY    84  69  60 SE14      30.02R
DEL RIO        CLOUDY    77  70  79 E8        30.00R
EL PASO        PTCLDY    79  58  48 N12       30.09R
HOUSTON INT    MOCLDY    77  75  93 NE6       29.96R
LUBBOCK        LGT RAIN  71  66  84 SE13      30.14S
SAN ANGELO     PTCLDY    77  68  73 E5        30.05R
SAN ANTONIO    PTCLDY    76  72  87 NE6       30.00R
WACO           PTCLDY    79  70  74 E10       30.02R
WICHITA FALLS  NOT AVBL
$$
...OTHER LOCATIONS IN NEW MEXICO...

CITY           SKY/WX    TMP DP  RH WIND       PRES   REMARKS
ALAMAGORDO     CLEAR     72  54  53 S3        30.13R
ALBUQUERQUE    PTCLDY    71  42  35 NW5       30.22R
CANNON AFB     LGT RAIN  64  59  84 NE20      30.19S
CLOVIS         CLOUDY    68  54  60 NW14G20   30.20S
HOLLOMAN AFB   CLEAR     73  60  64 W3        30.10R
ROSWELL        CLEAR     72  61  68 SE5       30.13R
RUIDOSO          N/A     59  54  82 SE7       30.34R
SANTA FE       CLOUDY    63  40  42 SW6       30.26R
TRUTH OR CONSE CLEAR     72  45  37 NW9       30.15R
TUCUMCARI      MOCLDY    68  58  70 S15G25    30.13R
$$

USA.gov is the U.S. government's official web portal to all federal, state and local government web resources and services.